This is the latest recevied weather packets stored in our database for station/object W4SMH. If no packets are shown the sender has not sent any weather packets the latest 10 day(s).
| Time | Temp. | Humidity | Pressure | Rain* | Wind** | Luminosity | Snow |
|---|---|---|---|---|---|---|---|
| 1777933500 | 26.11° C | 32% | 995.1 hPa | 0 mm | - | 113 W/m² | - |
| 1777933474 | 26.11° C | 34% | 995.2 hPa | 0 mm | - | 105 W/m² | - |
| 1777933082 | 26.67° C | 34% | 995.2 hPa | 0 mm | - | 445 W/m² | - |
| 1777931927 | 26.67° C | 32% | 995.2 hPa | 0 mm | - | 534 W/m² | - |
| 1777931756 | 26.67° C | 34% | 995.4 hPa | 0 mm | - | 568 W/m² | - |
| 1777931608 | 26.67° C | 32% | 995.4 hPa | 0 mm | - | 531 W/m² | - |
| 1777931333 | 26.67° C | 34% | 995.5 hPa | 0 mm | - | 501 W/m² | - |
| 1777930389 | 26.67° C | 33% | 995.6 hPa | 0 mm | - | 578 W/m² | - |
| 1777929614 | 26.67° C | 32% | 995.7 hPa | 0 mm | - | 654 W/m² | - |
| 1777928842 | 26.67° C | 35% | 995.8 hPa | 0 mm | - | 687 W/m² | - |
| 1777928796 | 26.67° C | 33% | 995.8 hPa | 0 mm | - | 700 W/m² | - |
| 1777928425 | 26.67° C | 31% | 995.7 hPa | 0 mm | - | 666 W/m² | - |
| 1777928363 | 26.67° C | 31% | 995.6 hPa | 0 mm | - | 675 W/m² | - |
| 1777928245 | 26.11° C | 34% | 995.8 hPa | 0 mm | - | 675 W/m² | - |
| 1777928214 | 26.11° C | 32% | 995.7 hPa | 0 mm | - | 656 W/m² | - |
| 1777927887 | 26.11° C | 33% | 995.9 hPa | 0 mm | - | 677 W/m² | - |
| 1777927628 | 26.11° C | 31% | 995.8 hPa | 0 mm | - | 715 W/m² | - |
| 1777927575 | 26.11° C | 36% | 995.9 hPa | 0 mm | - | 726 W/m² | - |
| 1777927364 | 26.11° C | 31% | 996 hPa | 0 mm | - | 687 W/m² | - |
| 1777926880 | 26.11° C | 32% | 995.9 hPa | 0 mm | - | 737 W/m² | - |
| 1777926596 | 26.11° C | 32% | 996.1 hPa | 0 mm | - | 782 W/m² | - |
| 1777926376 | 26.11° C | 33% | 996 hPa | 0 mm | - | 707 W/m² | - |
| 1777926344 | 26.11° C | 31% | 996.1 hPa | 0 mm | - | 747 W/m² | - |
| 1777926026 | 26.11° C | 33% | 996.1 hPa | 0 mm | - | 742 W/m² | - |
| 1777925077 | 26.11° C | 33% | 996.5 hPa | 0 mm | - | 754 W/m² | - |
* Rain latest hour (hover to see other rain measurements)
** Current wind speed in m/s (hover to see current wind gust speed)